WZZ6MS LHBP-LGZA

Flight info

Callsign WZZ6MS
Flight time N/A
Altitude 37000
Route FAHAZ DCT KEROP DCT TADAM DCT AKIKA DCT LIMJA DCT PITAS/N0437F330 UN732 KRK UT321 ASTUS
Aircraft A321/M-SDE3FGHIRWY/LB1

Departure

Time N/A
Airport Budapest Liszt Ferenc International Airport (LHBP)

Arrival

Time 2026-04-24 19:37
Airport Zakynthos International Airport Dionysios Solomos (LGZA)
Time Latitude Longitude Altitude Speed Heading
2026-04-24 18:54 41.21732 19.55328 37071 ft 464 kts 178°
2026-04-24 18:55 41.12047 19.54972 37068 ft 464 kts 178°
2026-04-24 18:56 41.05589 19.54732 37066 ft 464 kts 178°
2026-04-24 18:56 40.99132 19.54483 37072 ft 464 kts 178°
2026-04-24 18:57 40.92673 19.54238 37069 ft 464 kts 178°
2026-04-24 18:57 40.86218 19.53999 37070 ft 464 kts 178°
2026-04-24 18:58 40.79760 19.53759 37076 ft 464 kts 178°
2026-04-24 18:58 40.73301 19.53525 37075 ft 464 kts 178°
2026-04-24 18:59 40.66882 19.53286 37077 ft 464 kts 178°
2026-04-24 18:59 40.60376 19.53058 37075 ft 463 kts 175°
2026-04-24 19:00 40.54144 19.54298 37077 ft 453 kts 158°
2026-04-24 19:00 40.48199 19.57103 37071 ft 451 kts 155°
2026-04-24 19:01 40.42310 19.59799 37066 ft 454 kts 162°
2026-04-24 19:01 40.36105 19.61526 37076 ft 456 kts 164°
2026-04-24 19:02 40.30863 19.62807 37071 ft 458 kts 166°
2026-04-24 19:02 40.24619 19.64419 37068 ft 457 kts 163°
2026-04-24 19:03 40.18456 19.66192 37066 ft 456 kts 163°
2026-04-24 19:03 40.12248 19.67948 37060 ft 456 kts 164°
2026-04-24 19:04 40.06029 19.69635 37054 ft 457 kts 164°
2026-04-24 19:04 39.99799 19.71303 37046 ft 457 kts 164°
2026-04-24 19:05 39.93564 19.72983 37030 ft 458 kts 164°
2026-04-24 19:05 39.87325 19.74671 37027 ft 458 kts 164°
2026-04-24 19:06 39.81083 19.76354 37019 ft 458 kts 164°
2026-04-24 19:06 39.74835 19.78029 37020 ft 459 kts 164°
2026-04-24 19:07 39.68575 19.79707 37018 ft 460 kts 164°
2026-04-24 19:07 39.62310 19.81382 37015 ft 460 kts 165°
2026-04-24 19:08 39.56040 19.83053 37013 ft 460 kts 165°
2026-04-24 19:08 39.49770 19.84728 37018 ft 460 kts 165°
2026-04-24 19:09 39.43500 19.86397 37022 ft 460 kts 165°
2026-04-24 19:09 39.37226 19.88062 37026 ft 460 kts 165°
2026-04-24 19:10 39.30949 19.89733 37032 ft 461 kts 165°
2026-04-24 19:10 39.24664 19.91397 37040 ft 461 kts 165°
2026-04-24 19:11 39.18511 19.93534 37040 ft 456 kts 154°
2026-04-24 19:11 39.15571 19.95089 36657 ft 459 kts 154°
2026-04-24 19:11 39.12602 19.96664 35578 ft 464 kts 153°
2026-04-24 19:11 39.09644 19.98228 34863 ft 452 kts 153°
2026-04-24 19:12 39.06771 19.99742 34138 ft 440 kts 153°
2026-04-24 19:12 39.03982 20.01212 33425 ft 426 kts 152°
2026-04-24 19:12 39.01262 20.02649 32410 ft 420 kts 152°
2026-04-24 19:12 38.98586 20.04067 31494 ft 412 kts 151°
2026-04-24 19:13 38.96838 20.04992 30891 ft 407 kts 151°
2026-04-24 19:13 38.93445 20.06780 30164 ft 387 kts 151°
2026-04-24 19:13 38.90962 20.08083 29467 ft 386 kts 151°
2026-04-24 19:13 38.88479 20.09389 28816 ft 385 kts 151°
2026-04-24 19:14 38.86008 20.10688 28112 ft 383 kts 151°
2026-04-24 19:14 38.83562 20.11978 27924 ft 377 kts 151°
2026-04-24 19:14 38.81128 20.13263 27836 ft 379 kts 151°
2026-04-24 19:14 38.78691 20.14553 27748 ft 379 kts 151°
2026-04-24 19:15 38.76249 20.15841 27662 ft 379 kts 152°
2026-04-24 19:15 38.73807 20.17123 27577 ft 379 kts 152°
2026-04-24 19:15 38.71365 20.18401 27490 ft 379 kts 152°
2026-04-24 19:15 38.68918 20.19678 27216 ft 380 kts 152°
2026-04-24 19:16 38.64048 20.22218 26382 ft 376 kts 152°
2026-04-24 19:16 38.61634 20.23478 25978 ft 374 kts 152°
2026-04-24 19:16 38.59231 20.24732 25563 ft 372 kts 152°
2026-04-24 19:17 38.56838 20.25984 25180 ft 371 kts 153°
2026-04-24 19:17 38.54453 20.27230 24787 ft 369 kts 153°
2026-04-24 19:17 38.52084 20.28462 24403 ft 367 kts 153°
2026-04-24 19:17 38.49719 20.29690 24011 ft 366 kts 153°
2026-04-24 19:18 38.47364 20.30915 23605 ft 365 kts 153°
2026-04-24 19:18 38.45017 20.32134 23152 ft 363 kts 153°
2026-04-24 19:18 38.42684 20.33341 22743 ft 361 kts 153°
2026-04-24 19:18 38.40362 20.34543 22326 ft 359 kts 153°
2026-04-24 19:19 38.38055 20.35739 21905 ft 357 kts 153°
2026-04-24 19:19 38.35756 20.36932 21479 ft 355 kts 153°
2026-04-24 19:19 38.33472 20.38116 21048 ft 354 kts 154°
2026-04-24 19:19 38.31199 20.39292 20613 ft 352 kts 154°
2026-04-24 19:20 38.28932 20.40465 20178 ft 351 kts 154°
2026-04-24 19:20 38.27502 20.41204 19893 ft 350 kts 154°
2026-04-24 19:20 38.27352 20.41282 19869 ft 350 kts 154°
2026-04-24 19:21 38.26278 20.41795 20018 ft 347 kts 158°
2026-04-24 19:21 38.23937 20.42874 19959 ft 375 kts 155°
2026-04-24 19:22 38.22274 20.43715 19290 ft 398 kts 154°
2026-04-24 19:22 38.18882 20.45519 18197 ft 388 kts 154°
2026-04-24 19:22 38.16442 20.46833 17628 ft 370 kts 154°
2026-04-24 19:22 38.14143 20.48058 17250 ft 349 kts 154°
2026-04-24 19:23 38.11952 20.49209 16820 ft 332 kts 154°
2026-04-24 19:23 38.09824 20.50314 16414 ft 332 kts 154°
2026-04-24 19:23 38.07667 20.51429 15982 ft 339 kts 154°
2026-04-24 19:23 38.05510 20.52539 15554 ft 338 kts 154°
2026-04-24 19:24 38.03330 20.53659 15161 ft 337 kts 155°
2026-04-24 19:24 38.01157 20.54773 14729 ft 336 kts 155°
2026-04-24 19:24 37.98960 20.55897 14294 ft 336 kts 155°
2026-04-24 19:24 37.96796 20.57004 13862 ft 335 kts 155°
2026-04-24 19:25 37.94636 20.58109 13408 ft 334 kts 155°
2026-04-24 19:25 37.92515 20.59193 12978 ft 332 kts 155°
2026-04-24 19:25 37.90357 20.60296 12550 ft 329 kts 155°
2026-04-24 19:25 37.88239 20.61382 12128 ft 327 kts 155°
2026-04-24 19:26 37.86137 20.62459 11711 ft 325 kts 155°
2026-04-24 19:26 37.84078 20.63513 11304 ft 323 kts 155°
2026-04-24 19:26 37.81973 20.64585 10895 ft 321 kts 156°
2026-04-24 19:26 37.79907 20.65638 10487 ft 319 kts 156°
2026-04-24 19:27 37.77893 20.66660 10217 ft 311 kts 156°
2026-04-24 19:27 37.75937 20.67649 9725 ft 298 kts 156°
2026-04-24 19:27 37.74040 20.68612 9355 ft 291 kts 156°
2026-04-24 19:27 37.72157 20.69570 9228 ft 292 kts 156°
2026-04-24 19:28 37.70277 20.70529 9096 ft 291 kts 156°
2026-04-24 19:28 37.68403 20.71483 8787 ft 289 kts 156°
2026-04-24 19:28 37.66539 20.72429 8423 ft 288 kts 156°
2026-04-24 19:28 37.64687 20.73369 8043 ft 287 kts 156°
2026-04-24 19:29 37.61000 20.75234 7329 ft 283 kts 156°
2026-04-24 19:29 37.59202 20.76218 6971 ft 279 kts 147°
2026-04-24 19:29 37.57706 20.77723 6591 ft 275 kts 129°
2026-04-24 19:30 37.56684 20.79732 6178 ft 271 kts 111°
2026-04-24 19:30 37.56230 20.81899 5897 ft 245 kts 95°
2026-04-24 19:30 37.56088 20.83974 5455 ft 230 kts 94°
2026-04-24 19:30 37.55957 20.85920 5119 ft 216 kts 93°
2026-04-24 19:31 37.55830 20.87793 4815 ft 213 kts 93°
2026-04-24 19:31 37.55702 20.89636 4501 ft 209 kts 93°
2026-04-24 19:31 37.55600 20.91415 4212 ft 197 kts 87°
2026-04-24 19:31 37.55969 20.92964 3919 ft 177 kts 56°
2026-04-24 19:32 37.56815 20.93975 3672 ft 164 kts 29°
2026-04-24 19:32 37.57884 20.94354 3433 ft 159 kts
2026-04-24 19:32 37.58949 20.94116 3197 ft 155 kts 345°
2026-04-24 19:32 37.59973 20.93735 2989 ft 153 kts 345°
2026-04-24 19:33 37.61001 20.93360 2756 ft 152 kts 345°
2026-04-24 19:33 37.61994 20.92999 2513 ft 150 kts 346°
2026-04-24 19:33 37.62985 20.92638 2302 ft 148 kts 345°
2026-04-24 19:33 37.63971 20.92283 2081 ft 147 kts 346°
2026-04-24 19:34 37.64953 20.91944 1884 ft 146 kts 346°
2026-04-24 19:34 37.65942 20.91655 1709 ft 146 kts 351°
2026-04-24 19:34 37.66901 20.91437 1539 ft 136 kts 349°
2026-04-24 19:34 37.67814 20.91123 1365 ft 134 kts 344°
2026-04-24 19:35 37.68706 20.90788 1176 ft 134 kts 345°
2026-04-24 19:35 37.69595 20.90456 1003 ft 133 kts 344°
2026-04-24 19:35 37.70480 20.90130 813 ft 134 kts 343°
2026-04-24 19:35 37.71382 20.89800 635 ft 135 kts 343°
2026-04-24 19:36 37.72315 20.89462 628 ft 149 kts 345°
2026-04-24 19:36 37.73358 20.89073 311 ft 151 kts 343°
2026-04-24 19:36 37.74308 20.88719 45 ft 133 kts 344°
2026-04-24 19:36 37.75080 20.88432 19 ft 87 kts 343°
2026-04-24 19:37 37.75378 20.88320 21 ft 14 kts 343°
2026-04-24 19:37 37.75477 20.88302 21 ft 10 kts 32°
2026-04-24 19:37 37.75478 20.88339 21 ft 5 kts 109°
2026-04-24 19:37 37.75469 20.88371 22 ft 0 kts 104°
2026-04-24 19:38 37.75469 20.88374 22 ft 2 kts 104°
2026-04-24 19:38 37.75435 20.88416 21 ft 13 kts 159°
2026-04-24 19:38 37.75317 20.88463 20 ft 21 kts 163°
2026-04-24 19:38 37.75281 20.88521 20 ft 0 kts 86°
2026-04-24 19:39 37.75284 20.88536 20 ft 5 kts 78°
2026-04-24 19:39 37.75290 20.88565 20 ft 0 kts 73°
2026-04-24 19:45 37.75290 20.88564 20 ft 0 kts 73°